Location: Newark
(35.5300°N, 14.3000°E)
Time: 05:53:20
(UTC+00:00)

Transit 4A - Pass Details

Date: 27 November 2019
Orbit: 871 x 973 km, 66.8° (Epoch: 20 January)

Event Time Altitude Azimuth Distance (km) Brightness Sun altitude
Exits shadow 03:07:35 16° 14° (NNE) 2,130 9.8 -32.5°
Maximum altitude 03:10:26 23° 51° (NE) 1,796 9.8 -31.9°
Drops below altitude 10° 03:14:54 10° 102° (ESE) 2,515 11.0 -31.0°
Sets 03:17:55 0° 117° (ESE) 3,449 11.9 -30.4°
